This demonstration page uses our WeatherBlox Daily Observations layout. Learn more.

Left ArrowRight Arrow

40.92945, -100.16068

Hourly Observations for September 18, 2020

Temp ( °F °C ) Dew Point ( °F °C ) Humidity (%) Winds ( mph kmh ) Pressure ( in mb ) Visibility ( mi km ) Precip ( " mm )
12:15 am 00:15 Clear 58 14.4 53 11.8 85 85 SSE 6 9 30.17 1022 7 11 0.00 0.00
12:35 am 00:35 Clear 59 15 54 12.1 83 83 SE 6 9 30.18 1022 7 11 0.00 0.00
12:55 am 00:55 Clear 59 15 54 12 82 82 SSE 7 11 30.18 1022 7 11 0.00 0.00
1:15 am 01:15 Clear 58 14.7 54 12 84 84 SSE 8 13 30.18 1022 7 11 0.00 0.00
1:35 am 01:35 Clear 58 14.4 54 12 86 86 SSE 7 11 30.18 1022 7 11 0.00 0.00
1:55 am 01:55 Clear 58 14.5 54 12 85 85 SSE 6 9 30.18 1022 7 11 0.00 0.00
2:15 am 02:15 Clear 58 14.6 54 12 85 85 SE 6 9 30.18 1022 7 11 0.00 0.00
2:35 am 02:35 Clear 58 14.7 53 11.8 83 83 SE 7 11 30.19 1022 10 16 0.00 0.00
2:55 am 02:55 Clear 54 12.4 52 11 91 91 E 6 9 30.21 1023 7 11 0.00 0.00
3:15 am 03:15 Clear 54 12 52 10.9 93 93 E 6 9 30.21 1023 7 11 0.00 0.00
3:35 am 03:35 Clear 53 11.8 51 10.7 93 93 E 6 9 30.22 1024 7 11 0.00 0.00
3:55 am 03:55 Clear 54 12.1 52 11 93 93 E 7 11 30.22 1023 7 11 0.00 0.00
4:15 am 04:15 Clear 54 12 52 11 94 94 E 7 11 30.22 1023 7 11 0.00 0.00
4:35 am 04:35 Clear 54 12.1 52 10.9 92 92 E 5 7 30.22 1023 7 11 0.00 0.00
4:55 am 04:55 Partly Cloudy 54 12.2 52 10.9 92 92 ESE 7 11 30.22 1023 7 11 0.00 0.00
5:15 am 05:15 Clear 54 12.2 51 10.7 91 91 ESE 8 13 30.23 1024 7 11 0.00 0.00
5:35 am 05:35 Clear 54 12 51 10.5 91 91 E 8 13 30.22 1023 7 11 0.00 0.00
5:55 am 05:55 Clear 53 11.7 51 10.5 92 92 ESE 8 13 30.23 1024 10 16 0.00 0.00
6:15 am 06:15 Clear 53 11.7 50 10.2 91 91 ESE 7 11 30.24 1024 10 16 0.00 0.00
6:35 am 06:35 Clear 53 11.6 50 10.1 91 91 ESE 7 11 30.24 1024 10 16 0.00 0.00
6:55 am 06:55 Clear 53 11.5 50 10 91 91 ESE 7 11 30.24 1024 10 16 0.00 0.00
7:15 am 07:15 Clear 52 11.3 50 9.8 91 91 ESE 8 13 30.24 1024 10 16 0.00 0.00
7:35 am 07:35 Sunny 53 11.6 50 9.9 89 89 SE 9 15 30.25 1024 10 16 0.00 0.00
7:55 am 07:55 Sunny 53 11.5 50 9.9 90 90 SE 8 13 30.25 1024 10 16 0.00 0.00
8:15 am 08:15 Sunny 53 11.7 50 10 89 89 SE 8 13 30.26 1025 10 16 0.00 0.00
8:35 am 08:35 Sunny 54 12.1 50 10.1 88 88 SE 8 13 30.25 1024 10 16 0.00 0.00
8:55 am 08:55 Sunny 55 12.8 51 10.3 85 85 ESE 8 13 30.25 1024 10 16 0.00 0.00
9:15 am 09:15 Sunny 56 13.6 51 10.7 83 83 ESE 6 9 30.25 1024 10 16 0.00 0.00
9:35 am 09:35 Sunny 58 14.4 52 11 80 80 ESE 7 11 30.24 1024 10 16 0.00 0.00
9:55 am 09:55 Partly Cloudy 60 15.3 53 11.4 78 78 SE 8 13 30.24 1024 10 16 0.00 0.00
10:15 am 10:15 Cloudy 62 16.6 53 11.6 73 73 ESE 8 13 30.23 1024 10 16 0.00 0.00
10:35 am 10:35 Cloudy 64 17.9 53 11.5 66 66 SE 12 19 30.22 1023 10 16 0.00 0.00
10:55 am 10:55 Cloudy 65 18.6 53 11.4 63 63 SE 12 19 30.21 1023 10 16 0.00 0.00
11:15 am 11:15 Cloudy 67 19.3 53 11.5 61 61 SE 12 19 30.21 1023 10 16 0.00 0.00
11:35 am 11:35 Cloudy 68 19.8 53 11.4 59 59 ESE 15 24 30.19 1022 10 16 0.00 0.00
11:55 am 11:55 Mostly Cloudy 69 20.5 53 11.5 56 56 SE 15 24 30.19 1022 10 16 0.00 0.00
12:15 pm 12:15 Partly Cloudy 70 21 53 11.5 55 55 SE 15 24 30.18 1022 10 16 0.00 0.00
12:35 pm 12:35 Partly Cloudy 71 21.6 53 11.7 53 53 SE 14 22 30.17 1022 10 16 0.00 0.00
12:55 pm 12:55 Partly Cloudy 72 22.2 53 11.9 52 52 SE 15 24 30.16 1021 10 16 0.00 0.00
1:15 pm 13:15 Sunny 72 22.4 53 11.9 52 52 SSE 13 20 30.15 1021 10 16 0.00 0.00
1:35 pm 13:35 Sunny 73 22.6 53 11.7 50 50 SE 16 26 30.14 1021 10 16 0.00 0.00
1:55 pm 13:55 Sunny 73 22.8 54 12 51 51 SE 16 26 30.14 1021 10 16 0.00 0.00
2:15 pm 14:15 Sunny 74 23.5 54 12.1 49 49 SSE 16 26 30.12 1020 10 16 0.00 0.00
2:35 pm 14:35 Sunny 74 23.5 54 12 49 49 SSE 18 30 30.11 1020 10 16 0.00 0.00
2:55 pm 14:55 Sunny 75 23.9 54 12.1 48 48 SE 15 24 30.10 1019 10 16 0.00 0.00
3:15 pm 15:15 Sunny 76 24.2 54 12.1 47 47 SE 18 30 30.09 1019 10 16 0.00 0.00
3:35 pm 15:35 Sunny 75 24 54 12.1 47 47 SE 20 31 30.08 1019 10 16 0.00 0.00
3:55 pm 15:55 Sunny 76 24.2 54 12.1 47 47 SE 17 28 30.08 1018 10 16 0.00 0.00
4:15 pm 16:15 Sunny 76 24.4 54 12.4 47 47 SSE 15 24 30.06 1018 10 16 0.00 0.00
4:35 pm 16:35 Sunny 76 24.2 54 12.3 47 47 SSE 16 26 30.06 1018 10 16 0.00 0.00
4:55 pm 16:55 Sunny 76 24.2 55 12.5 48 48 SSE 18 30 30.06 1018 10 16 0.00 0.00
5:15 pm 17:15 Sunny 76 24.2 55 12.5 48 48 SSE 16 26 30.06 1018 10 16 0.00 0.00
5:35 pm 17:35 Sunny 75 23.7 54 12.4 49 49 SE 15 24 30.06 1018 10 16 0.00 0.00
5:55 pm 17:55 Sunny 74 23.2 54 12.3 50 50 SE 15 24 30.05 1018 10 16 0.00 0.00
6:15 pm 18:15 Sunny 73 22.8 54 12.3 52 52 SE 13 20 30.06 1018 10 16 0.00 0.00
6:35 pm 18:35 Sunny 73 22.5 54 12.2 52 52 SE 13 20 30.06 1018 10 16 0.00 0.00
6:55 pm 18:55 Sunny 72 22 54 12.1 54 54 SE 13 20 30.06 1018 10 16 0.00 0.00
7:15 pm 19:15 Sunny 71 21.4 54 12 55 55 SE 15 24 30.07 1018 10 16 0.00 0.00
7:35 pm 19:35 Sunny 69 20.8 53 11.9 57 57 SE 14 22 30.07 1018 10 16 0.00 0.00
7:55 pm 19:55 Clear 68 20 54 12 60 60 SE 13 20 30.08 1019 10 16 0.00 0.00
8:15 pm 20:15 Clear 67 19.6 53 11.7 60 60 SE 15 24 30.08 1018 10 16 0.00 0.00
8:35 pm 20:35 Clear 66 19.1 53 11.5 62 62 SE 13 20 30.09 1019 10 16 0.00 0.00
8:55 pm 20:55 Clear 65 18.6 53 11.5 64 64 SE 13 20 30.10 1019 10 16 0.00 0.00
9:15 pm 21:15 Clear 64 18 52 11.3 65 65 SE 10 17 30.11 1020 10 16 0.00 0.00
9:35 pm 21:35 Clear 64 17.6 52 11.2 66 66 SE 12 19 30.11 1020 10 16 0.00 0.00
9:55 pm 21:55 Clear 63 17.1 52 11.1 68 68 SE 12 19 30.12 1020 10 16 0.00 0.00
10:15 pm 22:15 Clear 62 16.8 52 11 69 69 SE 10 17 30.12 1020 10 16 0.00 0.00
10:35 pm 22:35 Clear 62 16.7 52 11 69 69 SE 10 17 30.12 1020 10 16 0.00 0.00
10:55 pm 22:55 Clear 62 16.4 51 10.8 70 70 SE 9 15 30.13 1020 10 16 0.00 0.00
11:15 pm 23:15 Clear 61 16 51 10.7 71 71 SE 9 15 30.13 1020 10 16 0.00 0.00
11:35 pm 23:35 Clear 60 15.8 51 10.6 71 71 SE 13 20 30.13 1020 10 16 0.00 0.00
11:55 pm 23:55 Clear 60 15.7 51 10.6 72 72 SSE 12 19 30.13 1020 10 16 0.00 0.00

Powered by AerisWeather